• MPC Preparation (Info)

  • MPEC 2024-F109 : 2024 FH3

    The following Minor Planet Electronic Circular may be linked-to from your own Web pages, but must not otherwise be redistributed electronically.

    A form allowing access to any MPEC is at the bottom of this page.


    Read MPEC 2024-F108 Read MPEC 2024-F110


    M.P.E.C. 2024-F109                               Issued 2024 March 30, 23:25 UT
    
         The Minor Planet Electronic Circulars contain information on unusual
             minor planets, routine data on comets and natural satellites,
             and occasional editorial announcements.  They are published
        on behalf of Division F of the International Astronomical Union by the
              Minor Planet Center, Smithsonian Astrophysical Observatory,
                              Cambridge, MA 02138, U.S.A.
    			  
                 Prepared using the Tamkin Foundation Computer Network
    
                                  MPC@CFA.HARVARD.EDU
                URL https://www.minorplanetcenter.net/    ISSN 1523-6714
    
                                    2024 FH3                                 
    
    
    Observations:
         K24F03H  C2024 03 19.34617511 00 15.466-25 29 24.21         19.43GVEF109F52
         K24F03H  C2024 03 19.35728511 00 15.227-25 28 02.80         19.29GVEF109F52
         K24F03H  C2024 03 19.37956211 00 14.731-25 25 18.63         19.27GVEF109F52
         K24F03H* C2024 03 30.27822711 01 12.971-06 23 50.89         19.86wXEF109F52
         K24F03H  C2024 03 30.30178911 01 13.132-06 21 51.83         19.68wXEF109F52
         K24F03H  C2024 03 30.31360211 01 13.208-06 20 52.57         19.99wXEF109F52
         K24F03H  C2024 03 30.47655111 01 14.229-06 07 13.84         19.73GVEF109F51
         K24F03H  C2024 03 30.47738011 01 14.239-06 07 09.72         19.87GVEF109F51
         K24F03H KB2024 03 30.59349 11 01 17.93 -05 57 34.1          19.9 GVEF109O46
         K24F03H KB2024 03 30.60097 11 01 18.01 -05 56 56.9          18.9 GVEF109O46
         K24F03H KB2024 03 30.60974 11 01 18.08 -05 56 13.5          19.6 GVEF109O46
         K24F03H KC2024 03 30.86616711 01 22.577-05 35 13.52         19.6 GVEF109J95
         K24F03H KC2024 03 30.87427911 01 22.663-05 34 33.60         19.8 GVEF109J95
         K24F03H KB2024 03 30.93303611 01 23.33 -05 29 44.0          18.8 GXEF109958
         K24F03H KB2024 03 30.94269611 01 23.36 -05 28 56.0          19.0 GXEF109958
    
    Observer details:
    958 Observatoire de Dax.  Observer P. Dupouy.  0.50-m f/4.5 Reflector + CMO.
    F51 Pan-STARRS 1, Haleakala.  Observers J. Herman, T. Lowe, P. Minguez, A.
        Schultz, I. Smith.  Measurers K. Chambers, T. de Boer, J. Fairlamb, H.
        Gao, M. Huber, C.-C. Lin, E. Magnier, Y. Ramanjooloo, R. Wainscoat, R.
        Weryk.  1.8-m Ritchey-Chretien + CCD.
    F52 Pan-STARRS 2, Haleakala.  Observers J. Herman, T. Lowe, P. Minguez, A.
        Schultz, I. Smith.  Measurers K. Chambers, T. de Boer, J. Fairlamb, H.
        Gao, M. Huber, C.-C. Lin, E. Magnier, Y. Ramanjooloo, R. Wainscoat, R.
        Weryk.  1.8-m Ritchey-Chretien + CCD.
    J95 Great Shefford.  Observer P. Birtwhistle.  0.41-m f/6.3 Schmidt-Cassegrain
        + CCD.
    O46 Daocheng Glacier Observatory.  Observer Z. Wang.  0.25-m f/8 reflector +
        CMO.
    
    Orbital elements:
    2024 FH3                                                 Earth MOID = 0.1322 AU
    Epoch 2024 Mar. 31.0 TT = JDT 2460400.5                 MPC                     
    M  71.91497              (2000.0)            P               Q                  
    n   0.70604844     Peri.  235.31773     +0.42032399     -0.90377097             
    a   1.2490497      Node   190.77651     +0.90735320     +0.41924936             
    e   0.4069261      Incl.   25.59712     +0.00615684     -0.08618590             
    P   1.40           H   20.87          G   0.15           U   9                  
    Residuals in seconds of arc
    240319 F52  0.0   0.2+    240330 F52  0.0   0.0     240330 O46  0.0   0.1+
    240319 F52  0.0   0.1-    240330 F51  0.0   0.0     240330 J95  0.0   0.1-
    240319 F52  0.1-  0.1-    240330 F51  0.1+  0.0     240330 J95  0.0   0.1+
    240330 F52  0.0   0.2-    240330 O46  0.4-  0.2+    240330 958  0.6+  0.7-
    240330 F52  0.0   0.2+    240330 O46  0.1-  0.2+    240330 958  0.3-  0.0
    
    Ephemeris:
    2024 FH3                 a,e,i = 1.25, 0.41, 26                  q = 0.7408
    Date    TT    R. A. (2000) Decl.     Delta      r    Elong.  Phase     V
    2024 02 29    11 12 02.3 -64 43 31   0.2566  1.0939   107.1    59.9    20.3
    ...
    2024 03 15    11 01 10.1 -34 42 48   0.2415  1.1941   142.0    30.8    19.5
    ...
    2024 03 23    11 00 04.7 -18 18 32   0.2674  1.2453   155.8    19.2    19.5
    ...
    2024 03 29    11 00 52.4 -08 14 24   0.3026  1.2824   157.0    17.7    19.7
    2024 03 30    11 01 07.4 -06 47 16   0.3096  1.2885   156.5    18.0    19.8
    2024 03 31    11 01 24.4 -05 23 59   0.3169  1.2945   155.8    18.4    19.9
    ...
    2024 04 06    11 03 44.6 +01 39 27   0.3661  1.3300   149.8    22.2    20.4
    ...
    2024 04 14    11 08 26.1 +08 11 51   0.4437  1.3753   140.7    27.5    21.0
    ...
    2024 04 29    11 21 09.4 +14 38 28   0.6129  1.4536   125.9    34.2    22.0
    
    A. U. Tomatic                (C) Copyright 2024 MPC           M.P.E.C. 2024-F109
    


    Read MPEC 2024-F108 Read MPEC 2024-F110


    MPEC number:

    Enter an MPEC number in one of the following forms:

    • 1997-B01 (the full form)
    • J97B01 (the packed version of the full form)
    • B01 (the abbreviated form)